Temperature
17 17 18 18 18 18 18 18 18 18 18 18 18 18 18 18 18 18 18 18 18 18 17 17 17 17 17 18 17 18 18 18 18 18 18 18 18 18 18 18 18 18 18
18 17 18 18 18 18 18 18 18 18 18 18 18 17 17 18 18 17 17 17 17 17 17 17 17 17 17 17 17 17 17 17 17 17 18 18 18 18 18 18 18 18 18
18 18 18 18 18 18 18 18 18 18 18 17 17 17 17 17 17 17 17 17 17 17 17 17 17 17 17 17 17 17 17 17 17 17 17 17 18 18 18 18 18 18 18
18 18 18 18 18 18 18 18 18 17 17 17 17 17 17 17 17 17 17 17 17 17 17 17 17 17 17 17 17 17 17 17 17 17 17 17 17 18 18 18 18 18 18
18 18 18 18 18 18 18 17 18 17 17 17 17 17 17 17 17 17 17 17 17 17 17 17 17 17 17 17 17 17 17 17 17 17 17 17 17 17 18 18 18 18 18
17 17 18 18 18 18 18 17 17 17 17 17 17 17 17 17 17 17 17 17 17 17 17 17 17 17 17 17 17 17 17 17 17 17 17 17 17 17 17 17 18 18 18
18 17 17 18 18 18 17 17 17 17 17 17 17 17 17 17 17 17 17 17 17 17 17 17 17 17 17 17 17 17 17 17 17 17 17 17 17 17 17 17 17 17 17
17 17 17 17 17 17 17 17 17 17 17 17 17 17 17 17 17 17 17 17 17 17 17 17 17 17 17 17 17 17 17 17 17 17 17 17 17 17 17 17 17 17 17
17 17 17 17 17 17 17 17 17 17 17 17 17 17 16 16 16 16 16 16 17 17 17 17 17 17 17 17 17 17 17 17 17 17 17 17 17 17 17 17 17 17 17
17 17 17 17 17 17 17 17 17 17 17 17 16 16 16 16 16 16 16 16 16 16 16 16 16 16 16 16 16 16 16 16 16 16 16 16 16 17 17 17 17 17 17
17 17 17 17 17 17 17 17 17 17 16 16 16 16 16 16 16 16 16 16 16 16 16 16 16 16 16 16 16 16 16 16 16 16 16 16 16 16 16 16 17 17 17
17 17 17 17 17 17 17 17 17 16 16 16 16 16 16 16 16 16 16 16 16 16 16 16 16 16 16 16 16 16 16 16 16 16 16 16 16 16 16 16 16 17 17
18 17 17 17 17 17 17 17 17 17 16 16 16 16 16 16 16 16 16 16 16 16 16 16 16 16 16 16 16 16 16 16 16 16 16 16 16 16 16 16 16 16 16
18 18 17 17 17 17 17 17 17 17 17 16 16 16 16 16 16 16 16 16 16 16 16 16 16 16 16 16 16 16 16 16 16 16 16 16 16 16 16 16 16 16 16
18 17 17 17 17 17 17 17 17 17 17 16 16 16 16 16 16 16 16 16 16 16 16 16 16 16 16 16 16 16 16 16 16 15 15 16 16 16 16 16 16 16 16
18 18 18 17 17 17 17 17 17 17 17 16 16 16 16 16 16 16 16 16 16 16 16 16 16 16 16 16 16 16 15 15 15 15 15 15 15 15 15 15 15 15 16
18 18 18 17 17 17 17 17 17 17 17 16 16 16 16 16 16 16 16 16 16 16 16 16 16 16 16 16 16 15 15 15 15 15 15 15 15 15 15 15 15 15 15
18 18 17 17 17 17 17 17 17 16 16 16 16 16 16 16 16 16 16 16 16 16 16 16 16 16 16 16 15 15 15 15 15 15 15 15 15 15 15 15 15 15 15
18 18 17 17 17 17 17 16 16 16 16 16 16 16 16 16 16 16 16 16 16 16 16 16 16 16 16 15 15 15 15 15 15 15 15 15 15 15 15 15 15 15 15
18 17 17 17 17 16 16 16 16 16 16 16 16 16 16 16 16 16 16 16 16 16 16 15 15 15 15 15 15 15 15 15 15 15 15 15 14 14 14 14 14 14 14
17 17 17 17 17 16 16 16 16 16 16 16 16 16 16 16 16 16 16 16 16 16 16 15 15 15 15 15 15 15 14 14 14 14 14 14 14 14 14 14 14 14 14
18 17 17 17 17 17 16 16 16 16 16 16 15 16 16 16 16 16 15 15 15 15 15 15 15 15 15 15 15 15 14 14 14 14 14 14 14 14 14 14 14 14 14
18 17 17 17 17 16 16 16 16 16 16 15 15 15 15 15 15 15 15 15 15 15 15 15 15 15 15 15 15 15 15 14 14 14 14 14 14 14 14 14 14 13 13
18 17 17 17 17 17 16 16 16 16 16 15 15 15 15 15 15 15 15 15 15 15 15 15 15 15 15 15 15 15 15 14 14 14 13 13 13 13 13 13 13 13 13
18 17 17 17 17 17 16 16 16 16 16 15 15 15 15 15 15 15 15 15 15 15 15 15 15 15 15 15 15 15 15 14 14 14 13 13 13 13 13 13 13 13 13
18 17 17 17 17 17 16 16 16 16 16 15 15 15 15 15 15 15 15 15 15 15 15 15 15 15 15 15 15 15 15 14 14 14 14 13 13 13 13 13 13 13 13
Wind_Speed
0 2 7 10 12 12 12 13 14 15 15 15 14 14 14 15 15 14 14 13 13 12 12 12 11 11 11 10 9 9 9 9 9 9 9 8 8 7 7 8 8 8 9
3 5 9 12 13 13 13 14 15 15 14 14 14 13 13 13 14 13 13 13 12 12 11 11 10 10 10 9 9 9 8 8 8 9 8 8 8 7 7 7 8 7 8
5 7 10 12 13 14 14 15 14 14 14 14 13 13 12 12 13 12 12 12 11 11 10 10 9 9 9 9 9 8 8 8 8 8 8 6 7 8 9 8 9 8 8
7 8 11 13 13 13 14 14 14 13 14 13 12 12 12 12 12 12 11 10 10 10 9 9 8 8 8 8 8 8 8 8 8 8 7 6 6 8 9 8 8 8 7
8 9 11 13 13 13 14 14 13 13 12 12 12 11 11 11 11 11 10 9 9 9 8 7 7 7 8 8 8 8 8 9 10 9 8 8 7 8 8 8 8 8 7
8 10 11 13 13 13 13 13 13 12 12 11 10 10 10 10 10 10 9 9 8 8 7 6 6 6 7 7 8 8 8 9 9 8 8 7 7 8 8 8 8 7 7
7 9 11 13 13 13 12 12 11 11 11 10 9 9 9 9 8 8 8 8 8 7 7 6 5 5 6 6 7 8 8 9 9 7 7 7 7 8 9 8 7 7 7
8 8 10 12 12 12 12 11 10 10 9 8 8 7 7 7 6 7 7 7 7 6 6 5 4 4 5 6 7 7 8 7 7 6 6 6 8 8 9 8 7 7 7
8 7 7 9 10 11 10 10 9 8 7 7 6 6 6 6 6 5 5 5 5 5 4 3 3 3 4 5 6 7 8 8 7 5 5 5 7 8 8 8 7 7 6
6 5 6 6 7 7 7 8 7 7 6 6 6 5 5 5 4 4 4 4 4 4 3 3 2 3 4 5 5 7 8 8 6 5 4 5 7 7 8 8 7 7 7
6 4 4 4 5 6 5 6 5 5 5 4 4 3 3 3 2 2 2 3 3 3 3 3 2 3 4 5 6 6 7 6 5 4 4 5 6 7 7 8 7 7 6
7 6 5 4 5 5 4 4 4 3 3 3 3 2 3 2 1 1 1 2 2 3 4 4 4 4 4 4 5 6 5 5 4 4 5 7 7 7 8 8 8 8 7
6 6 6 5 5 4 3 4 3 2 3 3 2 2 2 2 2 2 2 4 4 5 5 6 6 4 4 3 4 5 5 4 4 4 6 8 9 9 9 9 8 8 8
6 5 5 5 4 4 4 4 3 3 2 2 2 3 4 3 2 2 2 3 4 4 4 5 4 5 5 5 5 6 6 5 5 5 7 9 10 10 10 9 8 8 8
5 5 4 5 5 4 4 3 4 3 3 4 4 4 5 4 2 2 2 3 4 4 4 3 4 5 5 6 7 7 7 7 7 7 7 10 10 10 10 9 9 8 8
6 6 6 6 6 6 5 4 4 5 6 6 6 5 6 6 4 3 3 3 4 5 5 5 5 4 4 5 5 6 7 7 8 8 8 8 10 10 10 10 9 9 9
7 6 6 6 6 6 6 5 6 6 8 7 6 8 8 8 7 5 4 4 4 7 7 7 6 6 5 5 5 5 6 7 7 7 8 8 9 10 11 11 11 10 10
7 6 5 6 6 6 5 6 6 7 8 7 8 9 9 9 9 7 4 4 6 7 6 4 4 5 5 4 4 4 4 5 6 7 7 8 8 9 10 12 12 11 11
8 8 6 6 6 5 5 6 7 7 7 8 9 8 9 9 10 8 5 5 7 6 4 4 4 4 4 4 4 5 5 4 4 7 7 7 8 9 9 10 12 12 12
8 8 7 6 6 6 5 5 5 5 5 8 8 8 9 9 9 9 6 6 7 5 4 4 4 4 4 3 5 6 5 5 5 5 5 6 7 8 9 9 10 11 13
8 7 7 7 5 5 4 4 4 3 3 3 5 8 9 9 10 9 6 5 5 5 4 4 4 5 5 3 5 5 5 6 6 5 5 5 6 7 8 9 9 9 10
8 7 7 7 6 5 4 3 3 3 2 2 3 7 8 9 9 7 6 4 4 5 6 5 4 3 3 4 3 3 3 5 5 6 5 5 5 6 7 7 8 9 9
9 9 8 7 6 6 5 4 4 4 4 3 3 3 5 8 8 8 7 6 5 4 4 4 4 5 3 3 3 3 3 1 1 4 5 5 5 5 5 7 8 8 9
9 8 8 8 7 6 6 7 6 4 3 2 1 1 3 7 8 8 8 7 5 4 4 4 4 3 4 2 2 3 2 3 3 1 3 4 5 5 5 6 7 8 9
9 9 8 8 7 6 6 7 7 5 3 2 2 3 3 4 6 7 7 7 5 4 4 4 5 5 3 3 2 2 3 4 3 3 1 3 4 4 4 4 5 7 8
7 8 7 8 6 6 7 7 7 7 6 5 4 3 2 2 3 5 6 6 6 5 4 4 4 5 4 5 4 4 3 3 2 3 2 1 1 2 3 4 5 6 7
Wind_Direction
123 125 112 106 104 103 101 99 98 98 95 92 89 87 85 84 82 83 83 83 81 78 77 76 75 76 76 76 76 73 73 75 76 76 74 73 73 74 83 91 91 88 92
150 122 113 106 102 100 100 99 98 98 96 93 91 88 86 84 83 82 83 83 82 80 77 75 73 72 71 70 70 70 67 69 73 76 72 67 69 72 87 98 98 93 92
120 112 110 107 105 102 101 101 99 98 97 95 93 92 89 86 85 83 83 81 80 80 79 75 71 71 68 66 64 62 59 63 73 77 73 62 67 73 85 95 96 93 94
119 114 112 108 106 105 104 102 100 98 98 97 95 93 91 89 87 84 83 82 81 81 81 76 70 69 65 61 56 55 54 62 73 80 69 60 70 80 83 89 90 89 93
113 113 114 112 109 106 105 105 105 103 101 99 95 93 92 90 89 86 82 82 84 85 85 82 72 63 61 57 50 49 56 68 75 77 73 67 72 82 82 85 88 87 90
114 115 117 115 113 110 109 107 107 105 103 100 97 95 94 91 90 89 86 84 87 87 86 81 73 64 58 53 46 47 59 69 79 80 75 72 77 84 83 85 87 83 87
122 122 124 119 118 118 117 113 110 109 107 104 101 98 97 95 95 93 88 87 88 88 88 82 72 61 53 48 44 49 60 78 85 79 77 77 84 85 83 85 85 81 82
131 129 126 124 123 125 123 120 118 115 113 110 109 107 104 103 103 103 95 89 88 85 81 76 68 52 44 41 43 46 52 69 83 84 74 77 89 88 84 82 82 78 78
132 128 126 130 130 130 129 127 125 122 120 116 115 117 117 112 107 108 106 94 90 87 80 74 64 34 26 30 33 45 54 65 77 84 77 82 90 89 83 78 82 79 77
126 131 140 141 138 135 137 136 131 127 123 117 118 119 114 107 105 105 105 98 94 92 79 64 41 12 10 23 35 48 53 61 69 77 75 89 91 88 82 76 81 78 75
143 148 157 160 156 154 157 145 135 128 123 114 110 116 107 101 91 83 86 87 75 61 46 28 5 7 22 35 45 50 54 60 69 67 68 84 84 88 84 76 77 77 75
152 170 178 173 177 171 164 135 131 120 106 91 94 105 114 124 120 95 37 20 18 19 15 16 10 13 28 37 43 54 64 61 69 69 70 76 83 89 84 77 71 70 72
150 153 167 169 171 156 134 127 106 93 81 66 82 128 119 105 84 58 24 15 14 14 13 16 23 29 43 59 70 75 75 70 67 63 72 78 84 85 82 77 71 66 64
126 141 150 149 140 139 126 113 109 99 82 65 82 120 119 96 73 57 39 26 22 22 25 29 40 53 64 72 86 82 78 84 79 73 78 81 80 77 75 72 66 63 61
116 121 131 131 127 122 108 100 97 94 90 85 84 99 115 105 87 69 52 46 35 39 48 56 62 65 67 73 84 85 81 81 86 77 75 81 80 73 69 66 63 59 57
125 120 116 113 112 109 103 96 87 87 84 81 74 77 95 98 91 77 61 51 43 49 65 72 71 71 68 78 74 77 80 80 81 81 76 76 78 73 67 61 59 56 53
138 128 123 119 103 97 96 95 86 79 79 71 62 67 82 86 85 80 66 52 47 57 66 67 60 62 67 69 63 72 85 87 83 79 77 71 68 67 64 59 57 53 49
137 129 124 115 102 96 94 93 85 79 77 72 68 66 75 83 84 78 68 53 53 61 66 69 55 58 56 59 59 60 72 80 79 80 76 70 68 64 58 56 55 51 45
145 137 125 112 107 102 94 87 82 78 72 69 67 66 69 74 80 79 71 59 62 63 57 69 60 69 65 62 74 62 55 60 65 75 71 70 69 67 60 56 54 50 44
147 141 130 115 113 109 92 80 72 65 60 63 65 67 69 70 75 76 70 60 64 64 54 61 66 58 65 65 78 64 48 45 54 58 60 65 66 64 61 57 53 48 44
145 140 135 125 127 119 105 98 90 80 65 58 62 67 69 70 78 79 74 65 64 67 63 65 74 64 47 53 73 54 32 35 45 41 50 57 54 54 58 59 54 51 45
155 149 143 138 139 134 130 126 125 120 91 77 58 57 64 70 75 82 80 75 69 69 59 57 68 72 46 44 91 89 46 17 18 29 35 54 50 55 58 61 61 56 51
160 161 156 150 145 138 129 109 92 72 58 50 48 42 46 69 76 82 83 81 75 77 73 62 70 82 74 37 56 115 123 155 7 5 24 37 41 46 45 52 53 52 47
170 165 157 153 149 143 134 127 126 125 129 154 129 80 48 65 75 83 85 84 78 75 76 66 68 75 90 64 27 47 102 141 128 57 357 9 30 43 36 46 47 48 46
166 164 161 153 151 146 140 141 135 132 141 130 103 85 61 48 63 75 82 82 79 77 76 70 66 69 75 84 71 62 63 58 74 118 87 352 10 19 27 33 42 47 45
160 157 157 154 155 152 147 147 146 144 139 126 117 108 83 53 46 57 77 78 79 82 78 77 76 77 73 73 71 73 90 92 92 106 126 80 15 351 13 20 28 33 37
Height
1538 1538 1538 1537 1537 1537 1537 1538 1538 1538 1538 1539 1540 1540 1540 1540 1540 1540 1540 1540 1540 1540 1540 1540 1540 1541 1541 1541 1541 1541 1540 1540 1540 1540 1539 1539 1538 1538 1537 1537 1538 1538 1538
1538 1538 1539 1538 1538 1538 1538 1538 1539 1539 1539 1540 1540 1541 1541 1541 1541 1541 1541 1541 1541 1541 1541 1541 1541 1541 1541 1542 1542 1541 1541 1541 1541 1540 1540 1539 1539 1538 1536 1537 1538 1538 1539
1539 1539 1539 1539 1539 1539 1539 1539 1540 1540 1541 1541 1541 1541 1541 1542 1542 1542 1542 1542 1542 1542 1542 1542 1542 1542 1542 1542 1542 1542 1542 1542 1542 1541 1541 1540 1540 1538 1536 1537 1539 1539 1539
1540 1540 1540 1541 1541 1541 1541 1541 1541 1541 1541 1542 1542 1542 1542 1543 1543 1543 1543 1543 1543 1543 1543 1543 1543 1543 1543 1543 1543 1543 1543 1543 1543 1542 1541 1541 1540 1540 1539 1539 1540 1540 1540
1541 1541 1542 1542 1542 1542 1542 1542 1542 1543 1543 1543 1543 1543 1543 1544 1544 1544 1544 1544 1543 1543 1544 1544 1544 1544 1544 1544 1544 1544 1544 1544 1544 1543 1542 1542 1541 1541 1541 1541 1541 1541 1541
1542 1543 1543 1543 1543 1543 1543 1544 1544 1544 1544 1544 1545 1544 1545 1545 1545 1544 1544 1544 1544 1544 1545 1545 1545 1545 1545 1545 1545 1545 1545 1545 1544 1544 1543 1543 1542 1542 1542 1542 1542 1542 1542
1544 1544 1545 1545 1545 1545 1545 1545 1545 1545 1546 1546 1546 1546 1546 1546 1546 1546 1546 1545 1545 1545 1546 1546 1546 1546 1546 1546 1546 1546 1546 1546 1545 1545 1544 1544 1543 1543 1542 1542 1543 1543 1543
1545 1546 1546 1547 1547 1547 1547 1547 1547 1547 1547 1547 1547 1547 1547 1547 1547 1547 1547 1547 1547 1547 1547 1547 1547 1547 1547 1547 1547 1547 1547 1547 1546 1546 1545 1545 1544 1543 1543 1543 1543 1543 1543
1547 1547 1548 1548 1548 1549 1549 1549 1549 1549 1549 1549 1549 1549 1549 1549 1549 1549 1548 1548 1548 1548 1548 1548 1548 1548 1548 1548 1548 1548 1548 1547 1547 1546 1546 1545 1545 1544 1544 1544 1544 1544 1544
1549 1549 1550 1550 1550 1551 1551 1551 1551 1551 1550 1550 1550 1550 1550 1550 1550 1550 1550 1550 1550 1550 1550 1549 1549 1549 1549 1549 1549 1549 1548 1548 1548 1547 1547 1546 1545 1545 1544 1544 1544 1544 1544
1550 1551 1551 1552 1552 1552 1553 1553 1552 1552 1552 1552 1552 1552 1552 1552 1552 1552 1551 1551 1551 1551 1551 1551 1550 1550 1550 1550 1550 1549 1549 1549 1549 1548 1547 1546 1545 1545 1545 1545 1545 1545 1545
1551 1552 1552 1553 1554 1554 1554 1555 1554 1554 1554 1554 1554 1553 1553 1553 1553 1553 1553 1553 1553 1552 1552 1552 1552 1551 1551 1551 1551 1550 1550 1550 1549 1549 1548 1546 1544 1545 1546 1546 1546 1546 1545
1552 1552 1553 1554 1555 1555 1556 1556 1556 1556 1556 1555 1555 1555 1555 1555 1555 1555 1555 1554 1554 1554 1553 1553 1553 1552 1552 1552 1552 1552 1551 1551 1550 1550 1549 1547 1546 1546 1547 1546 1546 1546 1546
1552 1554 1554 1555 1556 1557 1557 1557 1557 1557 1557 1557 1556 1556 1556 1556 1556 1556 1556 1556 1555 1555 1555 1554 1554 1553 1553 1553 1553 1553 1552 1552 1552 1551 1550 1549 1548 1548 1547 1547 1547 1547 1546
1554 1555 1556 1556 1557 1558 1558 1558 1558 1558 1558 1558 1558 1558 1557 1557 1557 1557 1557 1557 1556 1556 1556 1555 1555 1555 1554 1554 1554 1554 1554 1553 1553 1552 1552 1551 1550 1550 1549 1548 1548 1547 1547
1554 1555 1556 1557 1558 1559 1559 1559 1559 1559 1559 1559 1559 1559 1559 1559 1558 1558 1558 1558 1557 1557 1557 1557 1556 1556 1556 1556 1555 1556 1555 1555 1554 1554 1553 1553 1552 1551 1550 1550 1549 1548 1547
1555 1556 1557 1558 1559 1559 1560 1560 1560 1560 1560 1560 1560 1560 1560 1560 1560 1559 1559 1559 1558 1558 1558 1557 1557 1557 1557 1557 1557 1557 1557 1556 1556 1556 1555 1554 1554 1553 1552 1551 1550 1549 1548
1556 1557 1558 1559 1559 1560 1560 1561 1561 1561 1562 1562 1562 1561 1561 1561 1561 1560 1560 1560 1560 1559 1559 1558 1558 1558 1558 1558 1558 1558 1558 1558 1558 1557 1557 1556 1555 1554 1553 1552 1551 1550 1549
1555 1557 1558 1559 1560 1560 1561 1562 1562 1562 1562 1562 1563 1562 1562 1562 1562 1561 1561 1560 1560 1560 1560 1559 1559 1559 1559 1560 1560 1560 1560 1560 1560 1559 1559 1558 1557 1556 1555 1554 1553 1551 1550
1556 1557 1558 1559 1560 1561 1562 1562 1563 1563 1563 1563 1563 1563 1563 1563 1562 1562 1562 1561 1561 1561 1560 1560 1560 1560 1560 1561 1561 1561 1561 1562 1561 1561 1560 1560 1559 1558 1557 1555 1554 1553 1551
1556 1557 1558 1559 1560 1561 1562 1562 1563 1563 1564 1564 1564 1564 1564 1564 1563 1563 1562 1562 1562 1561 1561 1561 1561 1561 1561 1562 1562 1563 1563 1563 1563 1563 1562 1561 1560 1559 1558 1557 1556 1554 1553
1555 1556 1558 1559 1560 1561 1562 1563 1563 1564 1564 1565 1565 1565 1565 1564 1564 1564 1564 1563 1563 1562 1562 1562 1562 1562 1562 1563 1563 1563 1564 1566 1565 1564 1564 1563 1562 1561 1560 1559 1557 1556 1554
1554 1556 1557 1559 1560 1561 1562 1563 1564 1564 1565 1565 1566 1565 1565 1565 1565 1565 1564 1564 1564 1564 1563 1563 1563 1563 1563 1563 1564 1564 1564 1565 1566 1566 1565 1564 1564 1562 1561 1560 1559 1557 1556
1553 1555 1557 1558 1560 1561 1562 1563 1564 1564 1565 1565 1566 1566 1566 1566 1566 1566 1565 1565 1565 1565 1564 1564 1565 1564 1564 1564 1564 1564 1565 1565 1565 1566 1567 1566 1565 1564 1563 1562 1560 1559 1557
1551 1554 1556 1558 1559 1561 1562 1563 1564 1564 1565 1566 1566 1566 1567 1567 1567 1566 1566 1566 1566 1566 1566 1566 1566 1566 1565 1565 1565 1565 1565 1565 1566 1566 1566 1567 1566 1565 1564 1563 1562 1560 1559
1550 1553 1555 1557 1558 1560 1561 1562 1563 1564 1565 1565 1566 1566 1567 1567 1567 1567 1567 1567 1567 1567 1567 1567 1567 1567 1566 1566 1566 1566 1566 1566 1566 1566 1566 1566 1566 1566 1566 1565 1563 1562 1561